Year,Month,Day,Hour,Minute,Value (Times are PST for temperature in C)
2016,08,05,00,00,14.10
2016,08,05,00,01,14.10
2016,08,05,00,02,14.10
2016,08,05,00,03,14.10
2016,08,05,00,04,14.10
2016,08,05,00,05,14.10
2016,08,05,00,06,14.10
2016,08,05,00,07,14.10
2016,08,05,00,08,14.10
2016,08,05,00,09,14.10
2016,08,05,00,10,14.10
2016,08,05,00,11,14.00
2016,08,05,00,12,14.00
2016,08,05,00,13,14.00
2016,08,05,00,14,14.00
2016,08,05,00,15,14.00
2016,08,05,00,16,14.00
2016,08,05,00,17,14.00
2016,08,05,00,18,14.00
2016,08,05,00,19,14.00
2016,08,05,00,20,14.00
2016,08,05,00,21,14.00
2016,08,05,00,22,14.00
2016,08,05,00,23,13.90
2016,08,05,00,24,13.90
2016,08,05,00,25,13.90
2016,08,05,00,26,13.90
2016,08,05,00,27,13.90
2016,08,05,00,28,13.90
2016,08,05,00,29,13.90
2016,08,05,00,30,13.90
2016,08,05,00,31,13.90
2016,08,05,00,32,14.00
2016,08,05,00,33,14.00
2016,08,05,00,34,14.00
2016,08,05,00,35,14.00
2016,08,05,00,36,14.00
2016,08,05,00,37,14.00
2016,08,05,00,38,14.00
2016,08,05,00,39,13.90
2016,08,05,00,40,13.90
2016,08,05,00,41,13.90
2016,08,05,00,42,13.90
2016,08,05,00,43,13.90
2016,08,05,00,44,13.90
2016,08,05,00,45,13.80
2016,08,05,00,46,13.80
2016,08,05,00,47,13.80
2016,08,05,00,48,13.80
2016,08,05,00,49,13.80
2016,08,05,00,50,13.80
2016,08,05,00,51,13.80
2016,08,05,00,52,13.80
2016,08,05,00,53,13.80
2016,08,05,00,54,13.70
2016,08,05,00,55,13.70
2016,08,05,00,56,13.70
2016,08,05,00,57,13.70
2016,08,05,00,58,13.70
2016,08,05,00,59,13.70
2016,08,05,01,00,13.70
2016,08,05,01,01,13.70
2016,08,05,01,02,13.70
2016,08,05,01,03,13.70
2016,08,05,01,04,13.80
2016,08,05,01,05,13.80
2016,08,05,01,06,13.80
2016,08,05,01,07,13.80
2016,08,05,01,08,13.70
2016,08,05,01,09,13.70
2016,08,05,01,10,13.80
2016,08,05,01,11,13.70
2016,08,05,01,12,13.70
2016,08,05,01,13,13.70
2016,08,05,01,14,13.70
2016,08,05,01,15,13.70
2016,08,05,01,16,13.70
2016,08,05,01,17,13.70
2016,08,05,01,18,13.70
2016,08,05,01,19,13.70
2016,08,05,01,20,13.70
2016,08,05,01,21,13.70
2016,08,05,01,22,13.60
2016,08,05,01,23,13.60
2016,08,05,01,24,13.60
2016,08,05,01,25,13.60
2016,08,05,01,26,13.60
2016,08,05,01,27,13.60
2016,08,05,01,28,13.60
2016,08,05,01,29,13.60
2016,08,05,01,30,13.60
2016,08,05,01,31,13.60
2016,08,05,01,32,13.60
2016,08,05,01,33,13.60
2016,08,05,01,34,13.60
2016,08,05,01,35,13.60
2016,08,05,01,36,13.60
2016,08,05,01,37,13.60
2016,08,05,01,38,13.50
2016,08,05,01,39,13.50
2016,08,05,01,40,13.50
2016,08,05,01,41,13.50
2016,08,05,01,42,13.50
2016,08,05,01,43,13.50
2016,08,05,01,44,13.40
2016,08,05,01,45,13.50
2016,08,05,01,46,13.50
2016,08,05,01,47,13.50
2016,08,05,01,48,13.50
2016,08,05,01,49,13.40
2016,08,05,01,50,13.40
2016,08,05,01,51,13.40
2016,08,05,01,52,13.40
2016,08,05,01,53,13.40
2016,08,05,01,54,13.40
2016,08,05,01,55,13.40
2016,08,05,01,56,13.40
2016,08,05,01,57,13.30
2016,08,05,01,58,13.30
2016,08,05,01,59,13.30
2016,08,05,02,00,13.30
2016,08,05,02,01,13.30
2016,08,05,02,02,13.30
2016,08,05,02,03,13.30
2016,08,05,02,04,13.30
2016,08,05,02,05,13.30
2016,08,05,02,06,13.30
2016,08,05,02,07,13.30
2016,08,05,02,08,13.30
2016,08,05,02,09,13.30
2016,08,05,02,10,13.20
2016,08,05,02,11,13.20
2016,08,05,02,12,13.20
2016,08,05,02,13,13.20
2016,08,05,02,14,13.20
2016,08,05,02,15,13.20
2016,08,05,02,16,13.20
2016,08,05,02,17,13.20
2016,08,05,02,18,13.20
2016,08,05,02,19,13.20
2016,08,05,02,20,13.20
2016,08,05,02,21,13.20
2016,08,05,02,22,13.20
2016,08,05,02,23,13.20
2016,08,05,02,24,13.20
2016,08,05,02,25,13.10
2016,08,05,02,26,13.10
2016,08,05,02,27,13.10
2016,08,05,02,28,13.10
2016,08,05,02,29,13.10
2016,08,05,02,30,13.10
2016,08,05,02,31,13.10
2016,08,05,02,32,13.10
2016,08,05,02,33,13.10
2016,08,05,02,34,13.10
2016,08,05,02,35,13.10
2016,08,05,02,36,13.10
2016,08,05,02,37,13.10
2016,08,05,02,38,13.10
2016,08,05,02,39,13.10
2016,08,05,02,40,13.10
2016,08,05,02,41,13.10
2016,08,05,02,42,13.10
2016,08,05,02,43,13.10
2016,08,05,02,44,13.10
2016,08,05,02,45,13.10
2016,08,05,02,46,13.20
2016,08,05,02,47,13.20
2016,08,05,02,48,13.20
2016,08,05,02,49,13.20
2016,08,05,02,50,13.20
2016,08,05,02,51,13.20
2016,08,05,02,52,13.20
2016,08,05,02,53,13.10
2016,08,05,02,54,13.10
2016,08,05,02,55,13.10
2016,08,05,02,56,13.10
2016,08,05,02,57,13.10
2016,08,05,02,58,13.10
2016,08,05,02,59,13.10
2016,08,05,03,00,13.10
2016,08,05,03,01,13.00
2016,08,05,03,02,13.00
2016,08,05,03,03,13.00
2016,08,05,03,04,12.90
2016,08,05,03,05,12.90
2016,08,05,03,06,12.90
2016,08,05,03,07,12.90
2016,08,05,03,08,13.00
2016,08,05,03,09,12.90
2016,08,05,03,10,12.90
2016,08,05,03,11,12.90
2016,08,05,03,12,12.90
2016,08,05,03,13,12.90
2016,08,05,03,14,12.90
2016,08,05,03,15,12.80
2016,08,05,03,16,12.80
2016,08,05,03,17,12.80
2016,08,05,03,18,12.80
2016,08,05,03,19,12.70
2016,08,05,03,20,12.70
2016,08,05,03,21,12.70
2016,08,05,03,22,12.60
2016,08,05,03,23,12.60
2016,08,05,03,24,12.60
2016,08,05,03,25,12.60
2016,08,05,03,26,12.60
2016,08,05,03,27,12.60
2016,08,05,03,28,12.50
2016,08,05,03,29,12.50
2016,08,05,03,30,12.60
2016,08,05,03,31,12.60
2016,08,05,03,32,12.60
2016,08,05,03,33,12.60
2016,08,05,03,34,12.60
2016,08,05,03,35,12.60
2016,08,05,03,36,12.50
2016,08,05,03,37,12.50
2016,08,05,03,38,12.50
2016,08,05,03,39,12.50
2016,08,05,03,40,12.50
2016,08,05,03,41,12.40
2016,08,05,03,42,12.40
2016,08,05,03,43,12.50
2016,08,05,03,44,12.60
2016,08,05,03,45,12.60
2016,08,05,03,46,12.70
2016,08,05,03,47,12.70
2016,08,05,03,48,12.70
2016,08,05,03,49,12.70
2016,08,05,03,50,12.70
2016,08,05,03,51,12.80
2016,08,05,03,52,12.80
2016,08,05,03,53,12.80
2016,08,05,03,54,12.80
2016,08,05,03,55,12.80
2016,08,05,03,56,12.80
2016,08,05,03,57,12.80
2016,08,05,03,58,12.80
2016,08,05,03,59,12.80
2016,08,05,04,00,12.80
2016,08,05,04,01,12.80
2016,08,05,04,02,12.70
2016,08,05,04,03,12.80
2016,08,05,04,04,12.80
2016,08,05,04,05,12.80
2016,08,05,04,06,12.90
2016,08,05,04,07,12.90
2016,08,05,04,08,12.90
2016,08,05,04,09,12.90
2016,08,05,04,10,12.90
2016,08,05,04,11,12.90
2016,08,05,04,12,12.90
2016,08,05,04,13,12.80
2016,08,05,04,14,12.80
2016,08,05,04,15,12.80
2016,08,05,04,16,12.80
2016,08,05,04,17,12.80
2016,08,05,04,18,12.80
2016,08,05,04,19,12.70
2016,08,05,04,20,12.70
2016,08,05,04,21,12.70
2016,08,05,04,22,12.70
2016,08,05,04,23,12.70
2016,08,05,04,24,12.70
2016,08,05,04,25,12.70
2016,08,05,04,26,12.70
2016,08,05,04,27,12.70
2016,08,05,04,28,12.60
2016,08,05,04,29,12.60
2016,08,05,04,30,12.60
2016,08,05,04,31,12.70
2016,08,05,04,32,12.70
2016,08,05,04,33,12.70
2016,08,05,04,34,12.70
2016,08,05,04,35,12.70
2016,08,05,04,36,12.70
2016,08,05,04,37,12.80
2016,08,05,04,38,12.80
2016,08,05,04,39,12.80
2016,08,05,04,40,12.80
2016,08,05,04,41,12.70
2016,08,05,04,42,12.70
2016,08,05,04,43,12.70
2016,08,05,04,44,12.60
2016,08,05,04,45,12.60
2016,08,05,04,46,12.60
2016,08,05,04,47,12.60
2016,08,05,04,48,12.60
2016,08,05,04,49,12.60
2016,08,05,04,50,12.60
2016,08,05,04,51,12.50
2016,08,05,04,52,12.50
2016,08,05,04,53,12.50
2016,08,05,04,54,12.40
2016,08,05,04,55,12.40
2016,08,05,04,56,12.40
2016,08,05,04,57,12.40
2016,08,05,04,58,12.40
2016,08,05,04,59,12.40
2016,08,05,05,00,12.40
2016,08,05,05,01,12.40
2016,08,05,05,02,12.40
2016,08,05,05,03,12.40
2016,08,05,05,04,12.40
2016,08,05,05,05,12.40
2016,08,05,05,06,12.40
2016,08,05,05,07,12.30
2016,08,05,05,08,12.40
2016,08,05,05,09,12.40
2016,08,05,05,10,12.40
2016,08,05,05,11,12.40
2016,08,05,05,12,12.40
2016,08,05,05,13,12.40
2016,08,05,05,14,12.30
2016,08,05,05,15,12.30
2016,08,05,05,16,12.30
2016,08,05,05,17,12.30
2016,08,05,05,18,12.30
2016,08,05,05,19,12.30
2016,08,05,05,20,12.30
2016,08,05,05,21,12.30
2016,08,05,05,22,12.30
2016,08,05,05,23,12.30
2016,08,05,05,24,12.20
2016,08,05,05,25,12.20
2016,08,05,05,26,12.20
2016,08,05,05,27,12.20
2016,08,05,05,28,12.20
2016,08,05,05,29,12.20
2016,08,05,05,30,12.10
2016,08,05,05,31,12.10
2016,08,05,05,32,12.10
2016,08,05,05,33,12.10
2016,08,05,05,34,12.10
2016,08,05,05,35,12.00
2016,08,05,05,36,12.00
2016,08,05,05,37,12.00
2016,08,05,05,38,12.00
2016,08,05,05,39,12.00
2016,08,05,05,40,12.00
2016,08,05,05,41,12.00
2016,08,05,05,42,11.90
2016,08,05,05,43,11.90
2016,08,05,05,44,11.90
2016,08,05,05,45,11.90
2016,08,05,05,46,11.90
2016,08,05,05,47,12.00
2016,08,05,05,48,12.00
2016,08,05,05,49,12.00
2016,08,05,05,50,11.90
2016,08,05,05,51,11.90
2016,08,05,05,52,11.90
2016,08,05,05,53,11.90
2016,08,05,05,54,11.90
2016,08,05,05,55,11.90
2016,08,05,05,56,11.90
2016,08,05,05,57,11.90
2016,08,05,05,58,11.90
2016,08,05,05,59,11.90
2016,08,05,06,00,11.90
2016,08,05,06,01,12.00
2016,08,05,06,02,12.00
2016,08,05,06,03,11.90
2016,08,05,06,04,11.90
2016,08,05,06,05,11.90
2016,08,05,06,06,11.90
2016,08,05,06,07,12.00
2016,08,05,06,08,12.00
2016,08,05,06,09,12.00
2016,08,05,06,10,11.90
2016,08,05,06,11,11.90
2016,08,05,06,12,11.90
2016,08,05,06,13,11.80
2016,08,05,06,14,11.80
2016,08,05,06,15,11.80
2016,08,05,06,16,11.80
2016,08,05,06,17,11.80
2016,08,05,06,18,11.80
2016,08,05,06,19,11.80
2016,08,05,06,20,11.90
2016,08,05,06,21,11.90
2016,08,05,06,22,11.90
2016,08,05,06,23,11.90
2016,08,05,06,24,11.80
2016,08,05,06,25,11.80
2016,08,05,06,26,11.80
2016,08,05,06,27,11.80
2016,08,05,06,28,11.80
2016,08,05,06,29,11.80
2016,08,05,06,30,11.80
2016,08,05,06,31,11.80
2016,08,05,06,32,11.80
2016,08,05,06,33,11.80
2016,08,05,06,34,11.80
2016,08,05,06,35,11.80
2016,08,05,06,36,11.80
2016,08,05,06,37,11.80
2016,08,05,06,38,11.80
2016,08,05,06,39,11.80
2016,08,05,06,40,11.80
2016,08,05,06,41,11.80
2016,08,05,06,42,11.80
2016,08,05,06,43,11.80
2016,08,05,06,44,11.80
2016,08,05,06,45,11.80
2016,08,05,06,46,11.80
2016,08,05,06,47,11.80
2016,08,05,06,48,11.80
2016,08,05,06,49,11.80
2016,08,05,06,50,11.80
2016,08,05,06,51,11.80
2016,08,05,06,52,11.80
2016,08,05,06,53,11.80
2016,08,05,06,54,11.80
2016,08,05,06,55,11.80
2016,08,05,06,56,11.80
2016,08,05,06,57,11.90
2016,08,05,06,58,11.90
2016,08,05,06,59,11.90
2016,08,05,07,00,11.90
2016,08,05,07,01,11.90
2016,08,05,07,02,11.90
2016,08,05,07,03,11.90
2016,08,05,07,04,11.90
2016,08,05,07,05,11.90
2016,08,05,07,06,11.90
2016,08,05,07,07,11.90
2016,08,05,07,08,11.90
2016,08,05,07,09,11.90
2016,08,05,07,10,11.90
2016,08,05,07,11,11.90
2016,08,05,07,12,11.90
2016,08,05,07,13,11.90
2016,08,05,07,14,11.80
2016,08,05,07,15,11.80
2016,08,05,07,16,11.90
2016,08,05,07,17,11.90
2016,08,05,07,18,11.90
2016,08,05,07,19,11.90
2016,08,05,07,20,12.00
2016,08,05,07,21,12.00
2016,08,05,07,22,12.00
2016,08,05,07,23,12.00
2016,08,05,07,24,12.00
2016,08,05,07,25,12.00
2016,08,05,07,26,12.00
2016,08,05,07,27,12.00
2016,08,05,07,28,12.10
2016,08,05,07,29,12.10
2016,08,05,07,30,12.10
2016,08,05,07,31,12.20
2016,08,05,07,32,12.20
2016,08,05,07,33,12.30
2016,08,05,07,34,12.30
2016,08,05,07,35,12.30
2016,08,05,07,36,12.30
2016,08,05,07,37,12.40
2016,08,05,07,38,12.40
2016,08,05,07,39,12.50
2016,08,05,07,40,12.60
2016,08,05,07,41,12.60
2016,08,05,07,42,12.70
2016,08,05,07,43,12.70
2016,08,05,07,44,12.80
2016,08,05,07,45,12.90
2016,08,05,07,46,13.00
2016,08,05,07,47,13.00
2016,08,05,07,48,13.10
2016,08,05,07,49,13.20
2016,08,05,07,50,13.20
2016,08,05,07,51,13.30
2016,08,05,07,52,13.30
2016,08,05,07,53,13.40
2016,08,05,07,54,13.50
2016,08,05,07,55,13.50
2016,08,05,07,56,13.60
2016,08,05,07,57,13.60
2016,08,05,07,58,13.70
2016,08,05,07,59,13.70
2016,08,05,08,00,13.80
2016,08,05,08,01,13.80
2016,08,05,08,02,13.80
2016,08,05,08,03,13.80
2016,08,05,08,04,13.90
2016,08,05,08,05,14.00
2016,08,05,08,06,14.20
2016,08,05,08,07,14.30
2016,08,05,08,08,14.40
2016,08,05,08,09,14.60
2016,08,05,08,10,14.70
2016,08,05,08,11,14.80
2016,08,05,08,12,14.90
2016,08,05,08,13,15.00
2016,08,05,08,14,15.10
2016,08,05,08,15,15.20
2016,08,05,08,16,15.40
2016,08,05,08,17,15.60
2016,08,05,08,18,15.80
2016,08,05,08,19,16.00
2016,08,05,08,20,16.10
2016,08,05,08,21,16.10
2016,08,05,08,22,16.20
2016,08,05,08,23,16.20
2016,08,05,08,24,16.30
2016,08,05,08,25,16.30
2016,08,05,08,26,16.30
2016,08,05,08,27,16.40
2016,08,05,08,28,16.40
2016,08,05,08,29,16.40
2016,08,05,08,30,16.50
2016,08,05,08,31,16.50
2016,08,05,08,32,16.60
2016,08,05,08,33,16.60
2016,08,05,08,34,16.60
2016,08,05,08,35,16.70
2016,08,05,08,36,16.70
2016,08,05,08,37,16.70
2016,08,05,08,38,16.80
2016,08,05,08,39,16.80
2016,08,05,08,40,16.80
2016,08,05,08,41,16.80
2016,08,05,08,42,16.90
2016,08,05,08,43,16.90
2016,08,05,08,44,16.90
2016,08,05,08,45,16.90
2016,08,05,08,46,17.00
2016,08,05,08,47,17.00
2016,08,05,08,48,17.00
2016,08,05,08,49,17.10
2016,08,05,08,50,17.10
2016,08,05,08,51,17.10
2016,08,05,08,52,17.10
2016,08,05,08,53,17.10
2016,08,05,08,54,17.10
2016,08,05,08,55,17.10
2016,08,05,08,56,17.20
2016,08,05,08,57,17.20
2016,08,05,08,58,17.20
2016,08,05,08,59,17.20
2016,08,05,09,00,17.20
2016,08,05,09,01,17.20
2016,08,05,09,02,17.20
2016,08,05,09,03,17.20
2016,08,05,09,04,17.20
2016,08,05,09,05,17.30
2016,08,05,09,06,17.30
2016,08,05,09,07,17.30
2016,08,05,09,08,17.30
2016,08,05,09,09,17.30
2016,08,05,09,10,17.30
2016,08,05,09,11,17.40
2016,08,05,09,12,17.40
2016,08,05,09,13,17.40
2016,08,05,09,14,17.40
2016,08,05,09,15,17.40
2016,08,05,09,16,17.40
2016,08,05,09,17,17.40
2016,08,05,09,18,17.50
2016,08,05,09,19,17.50
2016,08,05,09,20,17.50
2016,08,05,09,21,17.50
2016,08,05,09,22,17.50
2016,08,05,09,23,17.60
2016,08,05,09,24,17.60
2016,08,05,09,25,17.60
2016,08,05,09,26,17.60
2016,08,05,09,27,17.60
2016,08,05,09,28,17.70
2016,08,05,09,29,17.70
2016,08,05,09,30,17.70
2016,08,05,09,31,17.70
2016,08,05,09,32,17.70
2016,08,05,09,33,17.60
2016,08,05,09,34,17.60
2016,08,05,09,35,17.60
2016,08,05,09,36,17.60
2016,08,05,09,37,17.60
2016,08,05,09,38,17.60
2016,08,05,09,39,17.60
2016,08,05,09,40,17.60
2016,08,05,09,41,17.60
2016,08,05,09,42,17.60
2016,08,05,09,43,17.60
2016,08,05,09,44,17.60
2016,08,05,09,45,17.60
2016,08,05,09,46,17.60
2016,08,05,09,47,17.60
2016,08,05,09,48,17.70
2016,08,05,09,49,17.70
2016,08,05,09,50,17.80
2016,08,05,09,51,17.80
2016,08,05,09,52,17.80
2016,08,05,09,53,17.90
2016,08,05,09,54,18.00
2016,08,05,09,55,18.00
2016,08,05,09,56,18.10
2016,08,05,09,57,18.10
2016,08,05,09,58,18.20
2016,08,05,09,59,18.20
2016,08,05,10,00,18.30
2016,08,05,10,01,18.30
2016,08,05,10,02,18.30
2016,08,05,10,03,18.40
2016,08,05,10,04,18.40
2016,08,05,10,05,18.50
2016,08,05,10,06,18.60
2016,08,05,10,07,18.60
2016,08,05,10,08,18.70
2016,08,05,10,09,18.80
2016,08,05,10,10,18.80
2016,08,05,10,11,18.80
2016,08,05,10,12,18.80
2016,08,05,10,13,18.80
2016,08,05,10,14,18.70
2016,08,05,10,15,18.60
2016,08,05,10,16,18.50
2016,08,05,10,17,18.40
2016,08,05,10,18,18.50
2016,08,05,10,19,18.60
2016,08,05,10,20,18.60
2016,08,05,10,21,18.70
2016,08,05,10,22,18.70
2016,08,05,10,23,18.60
2016,08,05,10,24,18.60
2016,08,05,10,25,18.70
2016,08,05,10,26,18.70
2016,08,05,10,27,18.80
2016,08,05,10,28,18.80
2016,08,05,10,29,18.80
2016,08,05,10,30,18.60
2016,08,05,10,31,18.60
2016,08,05,10,32,18.60
2016,08,05,10,33,18.50
2016,08,05,10,34,18.60
2016,08,05,10,35,18.60
2016,08,05,10,36,18.70
2016,08,05,10,37,18.80
2016,08,05,10,38,18.80
2016,08,05,10,39,18.90
2016,08,05,10,40,19.00
2016,08,05,10,41,19.10
2016,08,05,10,42,19.20
2016,08,05,10,43,19.30
2016,08,05,10,44,19.30
2016,08,05,10,45,19.30
2016,08,05,10,46,19.20
2016,08,05,10,47,19.20
2016,08,05,10,48,19.20
2016,08,05,10,49,19.20
2016,08,05,10,50,19.10
2016,08,05,10,51,19.10
2016,08,05,10,52,19.10
2016,08,05,10,53,19.10
2016,08,05,10,54,19.10
2016,08,05,10,55,19.10
2016,08,05,10,56,19.20
2016,08,05,10,57,19.20
2016,08,05,10,58,19.00
2016,08,05,10,59,19.00
2016,08,05,11,00,18.90
2016,08,05,11,01,18.70
2016,08,05,11,02,18.60
2016,08,05,11,03,18.60
2016,08,05,11,04,18.60
2016,08,05,11,05,18.60
2016,08,05,11,06,18.70
2016,08,05,11,07,18.70
2016,08,05,11,08,18.70
2016,08,05,11,09,18.70
2016,08,05,11,10,18.60
2016,08,05,11,11,18.50
2016,08,05,11,12,18.50
2016,08,05,11,13,18.50
2016,08,05,11,14,18.60
2016,08,05,11,15,18.60
2016,08,05,11,16,18.70
2016,08,05,11,17,18.70
2016,08,05,11,18,18.80
2016,08,05,11,19,18.90
2016,08,05,11,20,19.00
2016,08,05,11,21,19.10
2016,08,05,11,22,19.20
2016,08,05,11,23,19.20
2016,08,05,11,24,19.20
2016,08,05,11,25,19.30
2016,08,05,11,26,19.30
2016,08,05,11,27,19.30
2016,08,05,11,28,19.40
2016,08,05,11,29,19.30
2016,08,05,11,30,19.30
2016,08,05,11,31,19.20
2016,08,05,11,32,19.20
2016,08,05,11,33,19.20
2016,08,05,11,34,19.30
2016,08,05,11,35,19.50
2016,08,05,11,36,19.60
2016,08,05,11,37,19.60
2016,08,05,11,38,19.50
2016,08,05,11,39,19.40
2016,08,05,11,40,19.30
2016,08,05,11,41,19.30
2016,08,05,11,42,19.30
2016,08,05,11,43,19.30
2016,08,05,11,44,19.20
2016,08,05,11,45,19.20
2016,08,05,11,46,19.30
2016,08,05,11,47,19.30
2016,08,05,11,48,19.20
2016,08,05,11,49,19.20
2016,08,05,11,50,19.10
2016,08,05,11,51,19.00
2016,08,05,11,52,19.00
2016,08,05,11,53,19.00
2016,08,05,11,54,19.10
2016,08,05,11,55,19.10
2016,08,05,11,56,19.20
2016,08,05,11,57,19.40
2016,08,05,11,58,19.60
2016,08,05,11,59,19.70
2016,08,05,12,00,19.70
2016,08,05,12,01,19.70
2016,08,05,12,02,19.80
2016,08,05,12,03,19.80
2016,08,05,12,04,19.80
2016,08,05,12,05,19.70
2016,08,05,12,06,19.70
2016,08,05,12,07,19.70
2016,08,05,12,08,19.80
2016,08,05,12,09,19.90
2016,08,05,12,10,20.10
2016,08,05,12,11,20.20
2016,08,05,12,12,20.40
2016,08,05,12,13,20.70
2016,08,05,12,14,20.90
2016,08,05,12,15,21.10
2016,08,05,12,16,21.40
2016,08,05,12,17,21.50
2016,08,05,12,18,21.50
2016,08,05,12,19,21.30
2016,08,05,12,20,21.20
2016,08,05,12,21,21.10
2016,08,05,12,22,21.10
2016,08,05,12,23,21.10
2016,08,05,12,24,21.00
2016,08,05,12,25,21.00
2016,08,05,12,26,21.00
2016,08,05,12,27,21.10
2016,08,05,12,28,21.20
2016,08,05,12,29,21.30
2016,08,05,12,30,21.40
2016,08,05,12,31,21.50
2016,08,05,12,32,21.60
2016,08,05,12,33,21.50
2016,08,05,12,34,21.50
2016,08,05,12,35,21.60
2016,08,05,12,36,21.60
2016,08,05,12,37,21.70
2016,08,05,12,38,21.70
2016,08,05,12,39,21.70
2016,08,05,12,40,21.70
2016,08,05,12,41,21.70
2016,08,05,12,42,21.70
2016,08,05,12,43,21.70
2016,08,05,12,44,21.70
2016,08,05,12,45,21.70
2016,08,05,12,46,21.50
2016,08,05,12,47,21.40
2016,08,05,12,48,21.40
2016,08,05,12,49,21.30
2016,08,05,12,50,21.20
2016,08,05,12,51,21.10
2016,08,05,12,52,20.90
2016,08,05,12,53,20.80
2016,08,05,12,54,20.70
2016,08,05,12,55,20.50
2016,08,05,12,56,20.50
2016,08,05,12,57,20.40
2016,08,05,12,58,20.50
2016,08,05,12,59,20.50
2016,08,05,13,00,20.50
2016,08,05,13,01,20.50
2016,08,05,13,02,20.50
2016,08,05,13,03,20.50
2016,08,05,13,04,20.50
2016,08,05,13,05,20.70
2016,08,05,13,06,20.90
2016,08,05,13,07,21.10
2016,08,05,13,08,21.20
2016,08,05,13,09,21.30
2016,08,05,13,10,21.30
2016,08,05,13,11,21.40
2016,08,05,13,12,21.40
2016,08,05,13,13,21.40
2016,08,05,13,14,21.40
2016,08,05,13,15,21.40
2016,08,05,13,16,21.30
2016,08,05,13,17,21.00
2016,08,05,13,18,20.70
2016,08,05,13,19,20.50
2016,08,05,13,20,20.40
2016,08,05,13,21,20.50
2016,08,05,13,22,20.60
2016,08,05,13,23,20.70
2016,08,05,13,24,20.90
2016,08,05,13,25,21.00
2016,08,05,13,26,21.20
2016,08,05,13,27,21.30
2016,08,05,13,28,21.40
2016,08,05,13,29,21.50
2016,08,05,13,30,21.60
2016,08,05,13,31,21.60
2016,08,05,13,32,21.40
2016,08,05,13,33,21.20
2016,08,05,13,34,21.00
2016,08,05,13,35,20.90
2016,08,05,13,36,20.70
2016,08,05,13,37,20.50
2016,08,05,13,38,20.40
2016,08,05,13,39,20.30
2016,08,05,13,40,20.30
2016,08,05,13,41,20.20
2016,08,05,13,42,20.20
2016,08,05,13,43,20.20
2016,08,05,13,44,20.20
2016,08,05,13,45,20.30
2016,08,05,13,46,20.40
2016,08,05,13,47,20.50
2016,08,05,13,48,20.70
2016,08,05,13,49,20.80
2016,08,05,13,50,20.80
2016,08,05,13,51,20.70
2016,08,05,13,52,20.60
2016,08,05,13,53,20.50
2016,08,05,13,54,20.40
2016,08,05,13,55,20.40
2016,08,05,13,56,20.30
2016,08,05,13,57,20.30
2016,08,05,13,58,20.30
2016,08,05,13,59,20.30
2016,08,05,14,00,20.30
2016,08,05,14,01,20.40
2016,08,05,14,02,20.50
2016,08,05,14,03,20.50
2016,08,05,14,04,20.50
2016,08,05,14,05,20.30
2016,08,05,14,06,20.20
2016,08,05,14,07,20.20
2016,08,05,14,08,20.10
2016,08,05,14,09,20.10
2016,08,05,14,10,20.20
2016,08,05,14,11,20.30
2016,08,05,14,12,20.40
2016,08,05,14,13,20.60
2016,08,05,14,14,20.80
2016,08,05,14,15,21.00
2016,08,05,14,16,21.00
2016,08,05,14,17,21.00
2016,08,05,14,18,20.80
2016,08,05,14,19,20.80
2016,08,05,14,20,20.80
2016,08,05,14,21,20.90
2016,08,05,14,22,21.00
2016,08,05,14,23,21.10
2016,08,05,14,24,21.20
2016,08,05,14,25,21.30
2016,08,05,14,26,21.40
2016,08,05,14,27,21.40
2016,08,05,14,28,21.50
2016,08,05,14,29,21.60
2016,08,05,14,30,21.80
2016,08,05,14,31,22.00
2016,08,05,14,32,22.10
2016,08,05,14,33,21.90
2016,08,05,14,34,22.00
2016,08,05,14,35,22.10
2016,08,05,14,36,22.20
2016,08,05,14,37,22.30
2016,08,05,14,38,22.50
2016,08,05,14,39,22.70
2016,08,05,14,40,22.80
2016,08,05,14,41,22.70
2016,08,05,14,42,22.70
2016,08,05,14,43,22.60
2016,08,05,14,44,22.50
2016,08,05,14,45,22.40
2016,08,05,14,46,22.30
2016,08,05,14,47,22.30
2016,08,05,14,48,22.40
2016,08,05,14,49,22.40
2016,08,05,14,50,22.50
2016,08,05,14,51,22.60
2016,08,05,14,52,22.70
2016,08,05,14,53,22.80
2016,08,05,14,54,22.90
2016,08,05,14,55,23.00
2016,08,05,14,56,23.10
2016,08,05,14,57,23.30
2016,08,05,14,58,23.40
2016,08,05,14,59,23.50
2016,08,05,15,00,23.60
2016,08,05,15,01,23.60
2016,08,05,15,02,23.70
2016,08,05,15,03,23.80
2016,08,05,15,04,23.80
2016,08,05,15,05,23.80
2016,08,05,15,06,23.70
2016,08,05,15,07,23.60
2016,08,05,15,08,23.40
2016,08,05,15,09,23.30
2016,08,05,15,10,23.20
2016,08,05,15,11,23.20
2016,08,05,15,12,23.20
2016,08,05,15,13,23.10
2016,08,05,15,14,23.10
2016,08,05,15,15,23.20
2016,08,05,15,16,23.30
2016,08,05,15,17,23.40
2016,08,05,15,18,23.50
2016,08,05,15,19,23.50
2016,08,05,15,20,23.40
2016,08,05,15,21,23.30
2016,08,05,15,22,23.30
2016,08,05,15,23,23.20
2016,08,05,15,24,23.20
2016,08,05,15,25,23.20
2016,08,05,15,26,23.30
2016,08,05,15,27,23.30
2016,08,05,15,28,23.40
2016,08,05,15,29,23.50
2016,08,05,15,30,23.40
2016,08,05,15,31,23.20
2016,08,05,15,32,23.20
2016,08,05,15,33,23.20
2016,08,05,15,34,23.30
2016,08,05,15,35,23.40
2016,08,05,15,36,23.50
2016,08,05,15,37,23.60
2016,08,05,15,38,23.60
2016,08,05,15,39,23.50
2016,08,05,15,40,23.40
2016,08,05,15,41,23.30
2016,08,05,15,42,23.10
2016,08,05,15,43,23.00
2016,08,05,15,44,22.80
2016,08,05,15,45,22.80
2016,08,05,15,46,22.70
2016,08,05,15,47,22.60
2016,08,05,15,48,22.50
2016,08,05,15,49,22.40
2016,08,05,15,50,22.30
2016,08,05,15,51,22.20
2016,08,05,15,52,22.20
2016,08,05,15,53,22.10
2016,08,05,15,54,22.00
2016,08,05,15,55,21.90
2016,08,05,15,56,21.90
2016,08,05,15,57,21.80
2016,08,05,15,58,21.80
2016,08,05,15,59,21.90
2016,08,05,16,00,21.90
2016,08,05,16,01,22.00
2016,08,05,16,02,22.20
2016,08,05,16,03,22.30
2016,08,05,16,04,22.40
2016,08,05,16,05,22.50
2016,08,05,16,06,22.60
2016,08,05,16,07,22.70
2016,08,05,16,08,22.70
2016,08,05,16,09,22.60
2016,08,05,16,10,22.40
2016,08,05,16,11,22.20
2016,08,05,16,12,22.00
2016,08,05,16,13,21.80
2016,08,05,16,14,21.70
2016,08,05,16,15,21.60
2016,08,05,16,16,21.50
2016,08,05,16,17,21.50
2016,08,05,16,18,21.50
2016,08,05,16,19,21.40
2016,08,05,16,20,21.50
2016,08,05,16,21,21.50
2016,08,05,16,22,21.60
2016,08,05,16,23,21.70
2016,08,05,16,24,21.70
2016,08,05,16,25,21.70
2016,08,05,16,26,21.80
2016,08,05,16,27,21.90
2016,08,05,16,28,22.00
2016,08,05,16,29,22.00
2016,08,05,16,30,22.10
2016,08,05,16,31,22.10
2016,08,05,16,32,22.10
2016,08,05,16,33,22.10
2016,08,05,16,34,22.20
2016,08,05,16,35,22.20
2016,08,05,16,36,22.20
2016,08,05,16,37,22.30
2016,08,05,16,38,22.30
2016,08,05,16,39,22.40
2016,08,05,16,40,22.40
2016,08,05,16,41,22.50
2016,08,05,16,42,22.50
2016,08,05,16,43,22.40
2016,08,05,16,44,22.30
2016,08,05,16,45,22.20
2016,08,05,16,46,22.20
2016,08,05,16,47,22.20
2016,08,05,16,48,22.20
2016,08,05,16,49,22.20
2016,08,05,16,50,22.10
2016,08,05,16,51,22.00
2016,08,05,16,52,22.00
2016,08,05,16,53,21.90
2016,08,05,16,54,21.80
2016,08,05,16,55,21.60
2016,08,05,16,56,21.50
2016,08,05,16,57,21.40
2016,08,05,16,58,21.40
2016,08,05,16,59,21.30
2016,08,05,17,00,21.20
2016,08,05,17,01,21.10
2016,08,05,17,02,21.10
2016,08,05,17,03,21.00
2016,08,05,17,04,21.00
2016,08,05,17,05,20.90
2016,08,05,17,06,20.90
2016,08,05,17,07,20.90
2016,08,05,17,08,21.00
2016,08,05,17,09,21.00
2016,08,05,17,10,21.00
2016,08,05,17,11,20.90
2016,08,05,17,12,20.80
2016,08,05,17,13,20.70
2016,08,05,17,14,20.70
2016,08,05,17,15,20.80
2016,08,05,17,16,20.80
2016,08,05,17,17,20.90
2016,08,05,17,18,20.90
2016,08,05,17,19,20.90